Content
SEND FEEDBACK

Daily
Averages
Monthly
Summary
United States of America

SHELL, WYOMING


Home > North America > United States > Wyoming
Elevation: 4295 feet     Latitude: 44 32N     Longitude: 107 48W

WEATHER
 
SELECT A DAY
Number of Records: 146,111;   Date Range: 9/17/98 - 7/23/14
 
SHARE

PRINT THIS DATA

[ ← Previous Day ]
WEATHER ALMANAC - JANUARY 31, 2013
[ Next Day → ]
[ °C ]   °F
Weather ElementAverageHighLow
Temperature19.2 °F27 °F (2:53 pm)8.6 °F (9:10 pm)
Dewpoint16.4 °F21.2 °F (11:46 am)6.8 °F (9:03 pm)
Humidity89.2 %100 % (8:42 pm)78 % (2:53 pm)
Barometer30.18 in30.30 in (11:53 am)30.01 in (4:11 am)
Wind Speed3.1 mph9.2 mph (3:53 pm)
Weather ElementAverage
Visibility6.5 mi
Wind DirectionE (95.5 °)

Weather ElementTotal
Precipitation---
Heating Degree Days47.2 (Base 65)
Averaged from 38 records on January 31, 2013
WEATHER CONDITIONS BREAKOUT
WIND DIRECTION BREAKOUT
WEATHER BY HOUR - JANUARY 31, 2013
[ °C ]   °F
Local TimeTemperatureDewpointHumidityBarometerVisibilityWind DirectionWind SpeedGust SpeedPrecipitationEventsConditions
1:53 AM18.0 °F16.0 °F92 %30.14 in8.0 miESE (110°)3.5 mphOvercast
2:53 AM18.0 °F17.1 °F96 %30.15 in9.0 miSE (130°)3.5 mphOvercast
3:53 AM18.0 °F15.1 °F88 %30.16 in9.0 miCalmOvercast
4:11 AM17.6 °F14.0 °F86 %30.01 in9.0 miCalmOvercast
4:53 AM18.0 °F16.0 °F92 %30.19 in9.0 miCalmOvercast
5:46 AM19.4 °F15.8 °F86 %30.05 in4.0 miSSW (210°)3.5 mph0.00 inSnowLight Snow
5:53 AM19.0 °F16.0 °F88 %30.20 in5.0 miSouth (170°)3.5 mph0.00 inSnowLight Snow
6:53 AM18.0 °F16.0 °F92 %30.23 in3.0 miSE (130°)3.5 mph0.00 inSnowLight Snow
7:37 AM17.6 °F15.8 °F93 %30.09 in5.0 miSSE (150°)3.5 mph0.00 inOvercast
7:53 AM18.0 °F16.0 °F92 %30.25 in5.0 miSSE (150°)4.6 mph0.00 inOvercast
8:16 AM19.4 °F17.6 °F93 %30.11 in5.0 miESE (120°)3.5 mphOvercast
8:42 AM19.4 °F17.6 °F93 %30.12 in3.0 miSSE (150°)3.5 mph0.00 inOvercast
8:53 AM19.9 °F18.0 °F92 %30.28 in4.0 miCalm0.00 inOvercast
9:08 AM19.4 °F17.6 °F93 %30.13 in4.0 miCalmOvercast
9:53 AM21.0 °F18.0 °F88 %30.29 in9.0 miEast (100°)6.9 mphOvercast
11:12 AM23.0 °F19.4 °F86 %30.15 in2.5 miESE (120°)4.6 mph0.00 inSnowLight Snow
11:20 AM23.0 °F19.4 °F86 %30.16 in4.0 miESE (120°)3.5 mph0.00 inSnowLight Snow
11:46 AM23.0 °F21.2 °F93 %30.15 in2.0 miCalm0.00 inSnowLight Snow
11:53 AM23.0 °F21.0 °F92 %30.30 in2.0 miCalm0.00 inSnowLight Snow
12:07 PM24.8 °F21.2 °F86 %30.14 in3.0 miCalm0.00 inSnowLight Snow
12:53 PM25.0 °F21.0 °F85 %30.27 in10.0 miSouth (180°)5.8 mph0.00 inOvercast
1:03 PM24.8 °F21.2 °F86 %30.13 in10.0 miSouth (170°)6.9 mphOvercast
1:19 PM24.8 °F21.2 °F86 %30.12 in10.0 miSSE (150°)8.1 mphOvercast
1:53 PM26.1 °F21.0 °F81 %30.26 in10.0 miSE (130°)6.9 mphOvercast
2:53 PM27.0 °F21.0 °F78 %30.25 in10.0 miESE (110°)5.8 mphOvercast
3:53 PM27.0 °F21.0 °F78 %30.24 in10.0 miESE (110°)9.2 mphOvercast
4:53 PM26.1 °F21.0 °F81 %30.24 in10.0 miEast (90°)5.8 mphOvercast
5:53 PM23.0 °F19.0 °F85 %30.25 in10.0 miSouth (180°)3.5 mphOvercast
6:53 PM19.0 °F16.0 °F88 %30.26 in10.0 miSSE (160°)4.6 mphClear
7:53 PM18.0 °F16.0 °F92 %30.26 in10.0 miSE (140°)4.6 mphClear
8:42 PM10.4 °F10.4 °F100 %30.09 in2.0 miWSW (250°)4.6 mphScattered Clouds
8:49 PM10.4 °F10.4 °F100 %30.09 in1.0 miCalmMostly Cloudy
8:53 PM10.0 °F9.0 °F95 %30.27 in1.0 miCalmMostly Cloudy
9:03 PM10.4 °F6.8 °F85 %30.09 in2.0 miWNW (300°)3.5 mphOvercast
9:10 PM8.6 °F6.8 °F92 %30.09 in8.0 miCalmOvercast
9:53 PM12.9 °F10.0 °F88 %30.25 in10.0 miCalmOvercast
10:53 PM15.1 °F12.9 °F91 %30.23 in10.0 miCalmOvercast
11:53 PM12.9 °F10.9 °F92 %30.23 in10.0 miCalmMostly Cloudy
Hourly data recorded from KGEY, located miles away from Shell, Wyoming







STORIES FROM OUR PARTNERS